• In Uzbekistan
  • List of Countries
  • For 7 days
  • Water Temperature
  • Satellite Maps
  • Weather Map
  • Weather Widgets
  • user-avatar
    Login

    Hourly Weather Rawson

    Today, 26 February, Sunday

    Time Temperature Precipitation Wind Pressure Humidity
    00:00 +26°C° 0 mm 6 mps 755 mmHg 54%
    01:00 +26°C° 0 mm 6 mps 755 mmHg 57%
    02:00 +26°C° 0 mm 4 mps 755 mmHg 51%
    03:00 +25°C° 0 mm 4 mps 754 mmHg 55%
    04:00 +25°C° 0 mm 4 mps 754 mmHg 58%
    05:00 +25°C° 0 mm 4 mps 754 mmHg 61%
    06:00 +26°C° 0.4 mm 4 mps 754 mmHg 58%
    07:00 +27°C° 0.4 mm 4 mps 754 mmHg 55%
    08:00 +28°C° 0 mm 3 mps 755 mmHg 48%
    09:00 +29°C° 0.3 mm 3 mps 755 mmHg 44%
    10:00 +30°C° 0.3 mm 3 mps 755 mmHg 41%
    11:00 +31°C° 0.3 mm 3 mps 755 mmHg 37%
    12:00 +33°C° 0.1 mm 3 mps 754 mmHg 36%
    13:00 +33°C° 0.1 mm 4 mps 754 mmHg 35%
    14:00 +34°C° 0.1 mm 4 mps 754 mmHg 34%
    15:00 +33°C° 0 mm 5 mps 754 mmHg 38%
    16:00 +32°C° 0 mm 5 mps 753 mmHg 42%
    17:00 +30°C° 0 mm 6 mps 753 mmHg 46%
    18:00 +28°C° 0 mm 6 mps 753 mmHg 52%
    19:00 +26°C° 0 mm 5 mps 753 mmHg 58%
    20:00 +23°C° 0 mm 5 mps 753 mmHg 64%
    21:00 +23°C° 0.3 mm 4 mps 754 mmHg 66%
    22:00 +23°C° 0.3 mm 4 mps 754 mmHg 68%
    23:00 +22°C° 0.3 mm 3 mps 754 mmHg 71%

    Tomorrow, 27 February, Monday

    Time Temperature Precipitation Wind Pressure Humidity
    00:00 +22°C° 0.1 mm 3 mps 754 mmHg 72%
    01:00 +22°C° 0.1 mm 3 mps 753 mmHg 73%
    02:00 +23°C° 0.1 mm 2 mps 753 mmHg 75%
    03:00 +23°C° 0.4 mm 2 mps 753 mmHg 78%
    04:00 +21°C° 0.4 mm 2 mps 753 mmHg 81%
    05:00 +21°C° 0.4 mm 2 mps 753 mmHg 84%
    06:00 +22°C° 0 mm 3 mps 753 mmHg 78%
    07:00 +25°C° 0 mm 3 mps 753 mmHg 72%
    08:00 +26°C° 0 mm 4 mps 753 mmHg 66%
    09:00 +27°C° 0 mm 4 mps 753 mmHg 59%
    10:00 +29°C° 0 mm 4 mps 753 mmHg 52%
    11:00 +32°C° 0 mm 4 mps 753 mmHg 44%
    12:00 +32°C° 0 mm 4 mps 753 mmHg 43%
    13:00 +33°C° 0 mm 4 mps 753 mmHg 43%
    14:00 +33°C° 0 mm 4 mps 753 mmHg 42%
    15:00 +33°C° 0 mm 4 mps 752 mmHg 45%
    16:00 +32°C° 0 mm 4 mps 752 mmHg 47%
    17:00 +31°C° 0 mm 3 mps 752 mmHg 49%
    18:00 +30°C° 0 mm 3 mps 752 mmHg 55%
    19:00 +28°C° 0 mm 3 mps 752 mmHg 60%
    20:00 +27°C° 0 mm 3 mps 752 mmHg 65%
    21:00 +26°C° 0 mm 3 mps 752 mmHg 67%
    22:00 +26°C° 0 mm 2 mps 752 mmHg 69%
    23:00 +25°C° 0 mm 2 mps 751 mmHg 70%

    Day after tomorrow, 28 February, Tuesday

    Time Temperature Precipitation Wind Pressure Humidity
    00:00 +25°C° 0 mm 2 mps 751 mmHg 71%
    01:00 +25°C° 0 mm 2 mps 751 mmHg 72%
    02:00 +25°C° 0 mm 2 mps 750 mmHg 73%
    03:00 +25°C° 0 mm 2 mps 750 mmHg 72%
    04:00 +24°C° 0 mm 2 mps 750 mmHg 72%
    05:00 +24°C° 0 mm 2 mps 749 mmHg 72%
    06:00 +25°C° 0 mm 3 mps 749 mmHg 59%
    07:00 +27°C° 0 mm 3 mps 749 mmHg 46%
    08:00 +28°C° 0 mm 4 mps 748 mmHg 34%
    09:00 +30°C° 0 mm 4 mps 747 mmHg 28%
    10:00 +33°C° 0 mm 5 mps 747 mmHg 22%
    11:00 +36°C° 0 mm 6 mps 746 mmHg 16%
    12:00 +36°C° 0 mm 7 mps 746 mmHg 18%
    13:00 +38°C° 0 mm 8 mps 745 mmHg 19%
    14:00 +38°C° 0 mm 9 mps 745 mmHg 21%
    15:00 +37°C° 0 mm 9 mps 744 mmHg 22%
    16:00 +34°C° 0 mm 9 mps 744 mmHg 24%
    17:00 +33°C° 0 mm 9 mps 743 mmHg 26%
    18:00 +32°C° 0 mm 9 mps 744 mmHg 26%
    19:00 +31°C° 0 mm 10 mps 744 mmHg 27%
    20:00 +29°C° 0 mm 10 mps 745 mmHg 27%
    21:00 +27°C° 0 mm 11 mps 746 mmHg 27%
    22:00 +24°C° 0 mm 12 mps 746 mmHg 27%
    23:00 +22°C° 0 mm 13 mps 747 mmHg 26%

    1 March, Wednesday

    Time Temperature Precipitation Wind Pressure Humidity
    00:00 +20°C° 0 mm 13 mps 748 mmHg 28%
    01:00 +19°C° 0 mm 12 mps 748 mmHg 30%
    02:00 +17°C° 0 mm 12 mps 749 mmHg 31%
    03:00 +15°C° 0 mm 12 mps 749 mmHg 31%
    04:00 +16°C° 0 mm 11 mps 750 mmHg 30%
    05:00 +14°C° 0 mm 11 mps 751 mmHg 30%
    06:00 +14°C° 0 mm 11 mps 751 mmHg 30%
    07:00 +14°C° 0 mm 11 mps 752 mmHg 31%
    08:00 +16°C° 0 mm 10 mps 753 mmHg 32%
    09:00 +17°C° 0 mm 10 mps 753 mmHg 30%
    10:00 +18°C° 0 mm 9 mps 753 mmHg 28%
    11:00 +19°C° 0 mm 9 mps 753 mmHg 26%
    12:00 +21°C° 0 mm 8 mps 752 mmHg 24%
    13:00 +22°C° 0 mm 8 mps 752 mmHg 23%
    14:00 +24°C° 0 mm 7 mps 752 mmHg 21%
    15:00 +24°C° 0 mm 7 mps 751 mmHg 20%
    16:00 +24°C° 0 mm 7 mps 751 mmHg 19%
    17:00 +24°C° 0 mm 7 mps 750 mmHg 19%
    18:00 +23°C° 0 mm 6 mps 751 mmHg 21%
    19:00 +21°C° 0 mm 5 mps 751 mmHg 23%
    20:00 +20°C° 0 mm 3 mps 751 mmHg 25%
    21:00 +19°C° 0 mm 4 mps 751 mmHg 28%
    22:00 +19°C° 0 mm 4 mps 751 mmHg 30%
    23:00 +18°C° 0 mm 4 mps 752 mmHg 33%

    2 March, Thursday

    Time Temperature Precipitation Wind Pressure Humidity
    00:00 +18°C° 0 mm 4 mps 752 mmHg 33%
    01:00 +16°C° 0 mm 5 mps 752 mmHg 34%
    02:00 +16°C° 0 mm 5 mps 752 mmHg 35%
    03:00 +16°C° 0 mm 6 mps 752 mmHg 35%
    04:00 +16°C° 0 mm 6 mps 752 mmHg 35%
    05:00 +16°C° 0 mm 7 mps 752 mmHg 36%
    06:00 +16°C° 0 mm 8 mps 753 mmHg 35%
    07:00 +17°C° 0 mm 9 mps 753 mmHg 35%
    08:00 +17°C° 0 mm 10 mps 754 mmHg 35%
    09:00 +18°C° 0 mm 10 mps 754 mmHg 32%
    10:00 +21°C° 0 mm 10 mps 754 mmHg 29%
    11:00 +22°C° 0 mm 10 mps 754 mmHg 26%
    12:00 +23°C° 0 mm 10 mps 753 mmHg 24%
    13:00 +23°C° 0 mm 10 mps 753 mmHg 23%
    14:00 +24°C° 0 mm 9 mps 753 mmHg 21%
    15:00 +24°C° 0 mm 9 mps 753 mmHg 21%
    16:00 +23°C° 0 mm 9 mps 753 mmHg 21%
    17:00 +23°C° 0 mm 9 mps 753 mmHg 21%
    18:00 +22°C° 0 mm 7 mps 754 mmHg 22%
    19:00 +22°C° 0 mm 6 mps 755 mmHg 22%
    20:00 +21°C° 0 mm 5 mps 755 mmHg 23%
    21:00 +21°C° 0 mm 5 mps 756 mmHg 25%
    22:00 +20°C° 0 mm 6 mps 756 mmHg 26%
    23:00 +20°C° 0 mm 7 mps 757 mmHg 28%

    3 March, Friday

    Time Temperature Precipitation Wind Pressure Humidity
    00:00 +18°C° 0 mm 7 mps 757 mmHg 30%
    01:00 +17°C° 0 mm 8 mps 757 mmHg 32%
    02:00 +16°C° 0 mm 9 mps 758 mmHg 34%
    03:00 +15°C° 0 mm 9 mps 758 mmHg 36%
    04:00 +15°C° 0 mm 8 mps 759 mmHg 39%
    05:00 +13°C° 0 mm 8 mps 759 mmHg 41%
    06:00 +13°C° 0 mm 8 mps 760 mmHg 40%
    07:00 +15°C° 0 mm 7 mps 760 mmHg 39%
    08:00 +15°C° 0 mm 7 mps 761 mmHg 37%
    09:00 +17°C° 0 mm 7 mps 761 mmHg 33%
    10:00 +19°C° 0 mm 6 mps 761 mmHg 30%
    11:00 +21°C° 0 mm 5 mps 762 mmHg 26%
    12:00 +22°C° 0 mm 5 mps 761 mmHg 23%
    13:00 +23°C° 0 mm 4 mps 761 mmHg 21%
    14:00 +25°C° 0 mm 3 mps 761 mmHg 18%
    15:00 +24°C° 0 mm 3 mps 761 mmHg 19%
    16:00 +23°C° 0 mm 4 mps 761 mmHg 19%
    17:00 +23°C° 0 mm 4 mps 761 mmHg 20%
    18:00 +22°C° 0 mm 4 mps 761 mmHg 26%
    19:00 +20°C° 0 mm 4 mps 761 mmHg 32%
    20:00 +19°C° 0 mm 5 mps 761 mmHg 38%
    21:00 +19°C° 0 mm 5 mps 761 mmHg 40%
    22:00 +17°C° 0 mm 5 mps 761 mmHg 43%
    23:00 +17°C° 0 mm 6 mps 761 mmHg 46%
    Show more